FW3613 Weather Reports


Display with metric or nautical units.
time (UTC)temp
F
wind
direction
speed
MPH
gust
MPH
rain 1hr
in
rain 24hr
in
rain mn
in
humidity
%
barometer
mb
20260905071603 53 321 0.0 0.0 0.02 0.25 0.02 91 1014.9
20260905071101 53 320 0.0 0.0 0.02 0.25 0.02 91 1015.2
20260905070558 53 321 0.0 1.0 0.02 0.25 0.02 91 1015.0
20260905070108 53 320 0.0 1.0 0.02 0.25 0.02 91 1014.9
20260905065558 53 320 0.0 2.0 0.02 0.28 0.02 91 1014.6
20260905065057 53 321 0.0 2.0 0.02 0.28 0.02 91 1014.7
20260905064556 53 319 1.0 2.0 0.01 0.27 0.01 90 1014.7
20260905064055 52 143 0.0 1.0 0.00 0.26 0.00 90 1014.7
20260905063557 52 142 0.0 1.0 0.00 0.26 0.00 90 1015.0
20260905063056 52 137 0.0 2.0 0.00 0.26 0.00 90 1014.5
20260905062553 52 137 0.0 3.0 0.00 0.26 0.00 90 1014.0
20260905062053 53 134 1.0 3.0 0.00 0.26 0.00 90 1014.5
20260905061607 53 143 0.0 2.0 0.00 0.26 0.00 90 1013.9
20260905061054 52 77 0.0 2.0 0.00 0.26 0.00 91 1013.2
20260905060550 52 139 0.0 1.0 0.00 0.26 0.00 91 1013.6
20260905060049 52 132 0.0 0.0 0.00 0.26 0.00 90 1014.0
20260905055547 52 133 0.0 0.0 0.00 0.26 0.26 90 1014.1
20260905055047 52 133 0.0 0.0 0.00 0.26 0.26 90 1014.1
20260905054548 52 133 0.0 0.0 0.00 0.26 0.26 90 1013.9
20260905054047 52 132 0.0 0.0 0.00 0.26 0.26 90 1014.5
20260905053547 53 133 0.0 0.0 0.00 0.26 0.26 90 1014.4
20260905053051 53 132 0.0 0.0 0.00 0.26 0.26 91 1014.4
20260905052548 53 132 0.0 0.0 0.00 0.26 0.26 90 1014.4
20260905052049 53 132 0.0 0.0 0.00 0.26 0.26 91 1014.2
20260905051546 53 132 0.0 0.0 0.00 0.26 0.26 91 1014.2
20260905051045 53 133 0.0 1.0 0.00 0.26 0.26 91 1014.2
20260905050547 53 132 0.0 1.0 0.00 0.26 0.26 91 1014.1
20260905050045 53 134 0.0 1.0 0.00 0.26 0.26 91 1014.1
20260905045544 53 135 0.0 1.0 0.00 0.26 0.26 91 1014.7
20260905045046 53 135 0.0 1.0 0.00 0.26 0.26 91 1014.4
20260905044545 53 135 0.0 2.0 0.00 0.26 0.26 91 1014.3
20260905044049 53 130 0.0 2.0 0.00 0.26 0.26 91 1014.3
20260905043544 54 150 0.0 1.0 0.00 0.26 0.26 91 1013.8
20260905043046 53 323 0.0 0.0 0.00 0.26 0.26 91 1013.5
20260905042545 54 323 0.0 0.0 0.00 0.26 0.26 90 1014.0
20260905042043 54 318 0.0 0.0 0.00 0.26 0.26 90 1014.5
20260905041543 54 318 0.0 0.0 0.00 0.26 0.26 90 1014.1
20260905041042 54 318 0.0 0.0 0.00 0.26 0.26 91 1013.9
20260905040542 53 318 0.0 0.0 0.00 0.26 0.26 91 1013.9
20260905040044 53 346 0.0 0.0 0.00 0.26 0.26 90 1014.2
20260905035542 53 77 0.0 0.0 0.00 0.26 0.26 90 1014.9
20260905035042 53 19 0.0 0.0 0.00 0.26 0.26 90 1014.4
20260905034547 53 19 0.0 0.0 0.00 0.26 0.26 90 1014.1
20260905034042 53 19 0.0 0.0 0.00 0.26 0.26 89 1014.3
20260905033541 54 8 0.0 1.0 0.00 0.26 0.26 89 1014.1
20260905033042 54 8 0.0 1.0 0.00 0.26 0.26 89 1014.0
20260905032541 54 323 0.0 0.0 0.00 0.26 0.26 89 1014.1
20260905032044 54 323 0.0 0.0 0.00 0.26 0.26 88 1013.9
20260905031541 54 323 0.0 0.0 0.00 0.26 0.26 87 1014.1
20260905031040 54 323 0.0 0.0 0.00 0.26 0.26 87 1014.1
20260905030540 54 323 0.0 0.0 0.00 0.26 0.26 87 1013.9
20260905030140 55 323 0.0 3.0 0.00 0.26 0.26 86 1014.0
20260905025539 55 323 0.0 3.0 0.00 0.26 0.26 86 1013.7
20260905025040 54 330 0.0 2.0 0.00 0.26 0.26 87 1013.7
20260905024556 54 330 0.0 0.0 0.00 0.26 0.26 88 1013.7
20260905024042 54 330 0.0 0.0 0.00 0.26 0.26 88 1014.0
20260905023541 55 330 0.0 0.0 0.00 0.26 0.26 87 1014.0
20260905023139 55 330 0.0 0.0 0.00 0.26 0.26 87 1014.0
20260905022537 55 330 0.0 0.0 0.00 0.26 0.26 86 1014.0
20260905022038 55 330 0.0 0.0 0.00 0.26 0.26 85 1014.0
20260905021542 55 330 0.0 0.0 0.00 0.26 0.26 85 1014.0
20260905021037 55 330 0.0 0.0 0.00 0.26 0.26 85 1014.0
20260905020537 56 330 0.0 0.0 0.00 0.26 0.26 84 1014.0
20260905020044 56 330 0.0 0.0 0.00 0.26 0.26 84 1014.0
20260905015537 56 330 0.0 0.0 0.00 0.26 0.26 83 1014.0
20260905015037 56 330 0.0 1.0 0.00 0.26 0.26 83 1014.1
20260905014538 56 330 0.0 1.0 0.00 0.26 0.26 82 1013.9
20260905014036 56 330 0.0 1.0 0.00 0.26 0.26 82 1013.9
20260905013537 56 138 0.0 1.0 0.00 0.26 0.26 83 1014.1
20260905013036 56 138 0.0 2.0 0.00 0.26 0.26 82 1014.1
20260905012536 56 138 0.0 2.0 0.00 0.26 0.26 82 1014.4
20260905012036 56 134 0.0 2.0 0.00 0.26 0.26 82 1014.2
20260905011539 56 305 0.0 0.0 0.00 0.26 0.26 81 1014.4
20260905011037 56 305 0.0 0.0 0.00 0.26 0.26 81 1014.5
20260905010533 56 321 0.0 0.0 0.00 0.26 0.26 80 1014.5
20260905010033 56 322 0.0 2.0 0.00 0.26 0.26 79 1014.4
20260905005533 56 323 0.0 2.0 0.00 0.26 0.26 79 1014.6
20260905005033 56 323 0.0 2.0 0.00 0.26 0.26 79 1015.0
20260905004533 56 323 0.0 4.0 0.00 0.26 0.26 80 1014.9
20260905004032 56 323 1.0 4.0 0.00 0.26 0.26 79 1015.0
20260905003532 56 326 1.0 4.0 0.00 0.26 0.26 79 1014.8
20260905003032 56 330 1.0 4.0 0.00 0.26 0.26 79 1014.8
20260905002530 56 224 0.0 5.0 0.00 0.26 0.26 80 1014.8
20260905002030 56 321 0.0 5.0 0.00 0.26 0.26 79 1014.8
20260905001529 56 328 1.0 6.0 0.00 0.26 0.26 81 1014.8
20260905001028 55 314 2.0 6.0 0.00 0.26 0.26 83 1014.7
20260905000529 55 329 1.0 4.0 0.00 0.26 0.26 85 1014.5
20260905000026 55 314 0.0 3.0 0.00 0.26 0.26 86 1014.5
20260904235527 55 309 0.0 5.0 0.00 0.26 0.26 86 1014.5
20260904235029 54 301 1.0 6.0 0.00 0.26 0.26 86 1014.5
20260904234536 54 323 2.0 6.0 0.00 0.26 0.26 86 1014.6
20260904234025 54 315 2.0 6.0 0.00 0.26 0.26 86 1014.6
20260904233522 54 323 2.0 7.0 0.00 0.26 0.26 87 1014.6
20260904233021 54 314 3.0 7.0 0.00 0.26 0.26 87 1014.6
20260904232521 53 322 2.0 4.0 0.00 0.26 0.26 88 1014.5
20260904232020 53 325 0.0 4.0 0.00 0.26 0.26 89 1014.8
20260904231519 53 314 2.0 5.0 0.00 0.26 0.26 88 1014.7
20260904231021 53 316 1.0 5.0 0.00 0.26 0.26 89 1014.7
20260904230522 52 325 1.0 5.0 0.00 0.26 0.26 89 1014.7
20260904230023 52 321 1.0 5.0 0.00 0.26 0.26 89 1014.7
20260904225523 52 327 3.0 5.0 0.00 0.26 0.26 90 1014.9
20260904225020 52 322 2.0 5.0 0.00 0.26 0.26 89 1014.9
20260904224535 52 325 2.0 5.0 0.02 0.26 0.26 89 1015.0
20260904224018 52 321 1.0 3.0 0.03 0.26 0.26 90 1014.8
20260904223518 52 325 0.0 2.0 0.04 0.26 0.26 90 1015.0
20260904223019 52 330 1.0 2.0 0.05 0.26 0.26 90 1015.0
20260904222516 52 235 0.0 1.0 0.05 0.26 0.26 90 1015.2
20260904222017 52 143 0.0 1.0 0.05 0.26 0.26 90 1015.0
20260904221516 52 143 0.0 1.0 0.05 0.26 0.26 90 1015.1
20260904221016 52 143 0.0 1.0 0.05 0.26 0.26 90 1015.2
20260904220516 52 151 0.0 1.0 0.05 0.26 0.26 90 1015.1
20260904220016 52 142 0.0 1.0 0.05 0.26 0.26 90 1015.2
20260904215517 52 141 0.0 1.0 0.05 0.26 0.26 89 1015.3
20260904215015 52 129 0.0 1.0 0.05 0.26 0.26 89 1015.3
20260904214534 52 127 0.0 0.0 0.03 0.24 0.24 88 1015.4
20260904214019 52 200 0.0 0.0 0.02 0.23 0.23 86 1015.7
20260904213515 52 181 0.0 0.0 0.01 0.22 0.22 86 1015.8
20260904213014 52 181 0.0 3.0 0.00 0.21 0.21 86 1015.8
20260904212513 52 183 0.0 3.0 0.00 0.21 0.21 86 1015.9
20260904212017 52 333 0.0 2.0 0.00 0.21 0.21 85 1015.8
20260904211514 52 150 0.0 4.0 0.00 0.21 0.21 85 1015.6
20260904211011 52 323 1.0 4.0 0.00 0.21 0.21 84 1015.5
20260904210511 52 354 0.0 3.0 0.00 0.21 0.21 84 1015.5
20260904210011 52 319 1.0 4.0 0.00 0.21 0.21 84 1015.4
20260904205511 52 328 0.0 4.0 0.00 0.21 0.21 84 1015.3
20260904205012 52 328 0.0 4.0 0.00 0.21 0.21 85 1015.2
20260904204510 52 326 0.0 4.0 0.00 0.21 0.21 86 1015.3
20260904204009 52 328 1.0 4.0 0.01 0.21 0.21 86 1015.2
20260904203508 53 330 0.0 2.0 0.01 0.21 0.21 86 1015.1
20260904203007 52 148 0.0 4.0 0.01 0.21 0.21 86 1014.9
20260904202507 52 333 0.0 4.0 0.01 0.21 0.21 85 1014.8
20260904202009 53 333 1.0 4.0 0.02 0.21 0.21 86 1014.8
20260904201505 53 346 0.0 2.0 0.02 0.21 0.21 87 1014.8
20260904201005 53 164 0.0 1.0 0.02 0.21 0.21 87 1014.7
20260904200503 53 165 0.0 1.0 0.02 0.21 0.21 86 1014.7
20260904200004 53 326 0.0 1.0 0.03 0.21 0.21 86 1014.7
20260904195502 52 326 0.0 1.0 0.04 0.21 0.21 85 1014.8
20260904195103 52 326 0.0 1.0 0.04 0.21 0.21 85 1014.9
20260904194603 52 326 0.0 1.0 0.04 0.21 0.21 84 1015.1
20260904194057 52 326 0.0 1.0 0.03 0.20 0.20 85 1015.1
20260904193556 52 326 0.0 1.0 0.03 0.20 0.20 83 1015.2
20260904193055 52 326 0.0 1.0 0.03 0.20 0.20 84 1015.3
20260904192552 52 326 0.0 1.0 0.03 0.20 0.20 83 1015.4
20260904192052 52 327 0.0 1.0 0.02 0.19 0.19 84 1015.5
20260904191552 52 327 0.0 1.0 0.02 0.19 0.19 83 1015.6
20260904191052 53 325 0.0 2.0 0.02 0.19 0.19 83 1015.6
20260904190551 53 325 0.0 2.0 0.03 0.19 0.19 83 1015.4
20260904190051 53 325 0.0 3.0 0.02 0.18 0.18 80 1015.3
20260904185550 53 325 1.0 3.0 0.01 0.17 0.17 80 1015.3
20260904185050 53 323 0.0 2.0 0.01 0.17 0.17 80 1015.3
20260904184602 53 252 0.0 2.0 0.01 0.17 0.17 80 1015.4
20260904184050 53 141 0.0 1.0 0.01 0.17 0.17 80 1015.3
20260904183550 53 313 0.0 3.0 0.01 0.17 0.17 80 1015.2
20260904183049 53 309 1.0 3.0 0.01 0.17 0.17 80 1015.2
20260904182551 53 327 1.0 4.0 0.01 0.17 0.17 79 1015.3
20260904182048 53 321 2.0 4.0 0.01 0.17 0.17 79 1015.3
20260904181549 53 328 0.0 3.0 0.01 0.17 0.17 79 1015.4
20260904181048 53 330 0.0 2.0 0.01 0.17 0.17 79 1015.4
20260904180548 53 150 0.0 3.0 0.00 0.16 0.16 79 1015.4
20260904180100 53 153 0.0 3.0 0.00 0.16 0.16 79 1015.4
20260904175546 53 150 1.0 3.0 0.00 0.16 0.16 79 1015.2
20260904175047 53 330 0.0 2.0 0.00 0.16 0.16 79 1015.1
20260904174547 53 307 0.0 2.0 0.00 0.16 0.16 78 1015.2
20260904174045 53 139 0.0 2.0 0.00 0.16 0.16 78 1015.0
20260904173545 53 148 0.0 2.0 0.00 0.16 0.16 79 1015.0
20260904173049 53 327 0.0 2.0 0.00 0.16 0.16 78 1014.9
20260904172544 53 326 0.0 2.0 0.00 0.16 0.16 77 1014.8
20260904172044 53 315 0.0 3.0 0.00 0.16 0.16 76 1014.9
20260904171549 53 314 1.0 3.0 0.00 0.16 0.16 77 1014.9
20260904171043 53 319 0.0 2.0 0.00 0.16 0.16 77 1014.9
20260904170543 53 319 0.0 2.0 0.00 0.16 0.16 78 1015.0
20260904170042 52 293 0.0 3.0 0.00 0.16 0.16 80 1014.8
20260904165541 52 316 1.0 4.0 0.00 0.16 0.16 80 1014.7
20260904165043 52 314 0.0 4.0 0.00 0.16 0.16 80 1014.5
20260904164541 52 328 0.0 3.0 0.00 0.16 0.16 78 1014.6
20260904164043 52 333 0.0 4.0 0.00 0.16 0.16 78 1014.7
20260904163539 52 325 1.0 4.0 0.00 0.16 0.16 77 1014.5
20260904163040 52 326 0.0 3.0 0.00 0.16 0.16 79 1014.4
20260904162538 52 316 0.0 3.0 0.00 0.16 0.16 81 1014.3
20260904162037 52 314 1.0 3.0 0.00 0.16 0.16 80 1014.2
20260904161538 52 326 1.0 3.0 0.00 0.16 0.16 80 1014.3
20260904161037 52 304 0.0 2.0 0.00 0.16 0.16 81 1014.3
20260904160536 52 134 0.0 3.0 0.00 0.16 0.16 83 1014.4
20260904160040 52 137 0.0 3.0 0.00 0.16 0.16 83 1014.4
20260904155537 51 167 0.0 2.0 0.00 0.16 0.16 83 1014.3
20260904155034 51 153 0.0 2.0 0.00 0.16 0.16 83 1014.3
20260904154534 51 159 0.0 2.0 0.00 0.16 0.16 84 1014.3
20260904154033 51 188 0.0 2.0 0.00 0.16 0.16 84 1014.4
20260904153532 51 139 0.0 1.0 0.00 0.16 0.16 86 1014.4
20260904153034 51 139 0.0 2.0 0.00 0.16 0.16 86 1014.4
20260904152529 51 144 0.0 1.0 0.00 0.16 0.16 87 1014.5
20260904152028 50 131 0.0 3.0 0.00 0.16 0.16 88 1014.3
20260904151528 50 139 0.0 3.0 0.00 0.16 0.16 87 1014.3
20260904151028 50 130 0.0 3.0 0.00 0.16 0.16 88 1014.3
20260904150526 50 129 0.0 2.0 0.00 0.16 0.16 88 1014.2
20260904150025 50 146 0.0 1.0 0.00 0.16 0.16 88 1014.0
20260904145524 50 135 0.0 0.0 0.00 0.16 0.16 88 1013.7
20260904145023 50 135 0.0 0.0 0.00 0.16 0.16 88 1013.8
20260904144522 50 135 0.0 0.0 0.00 0.16 0.16 88 1013.9
20260904144021 49 135 0.0 0.0 0.00 0.16 0.16 90 1014.0
20260904143521 49 136 0.0 0.0 0.00 0.16 0.16 90 1014.0
20260904143021 49 135 0.0 1.0 0.00 0.16 0.16 90 1014.0
20260904142520 49 135 0.0 1.0 0.00 0.16 0.16 91 1014.0
20260904142019 49 138 0.0 1.0 0.00 0.16 0.16 91 1013.7
20260904141518 49 148 0.0 1.0 0.00 0.16 0.16 91 1013.6
20260904141019 48 148 0.0 0.0 0.00 0.16 0.16 91 1013.6
20260904140518 48 148 0.0 1.0 0.00 0.16 0.16 91 1013.6
20260904140018 48 148 0.0 1.0 0.00 0.16 0.16 91 1013.7
20260904135518 48 148 0.0 1.0 0.00 0.16 0.16 91 1013.6
20260904135018 48 147 0.0 1.0 0.00 0.16 0.16 91 1013.6
20260904134517 48 150 0.0 0.0 0.00 0.16 0.16 91 1013.5
20260904134016 48 150 0.0 0.0 0.00 0.16 0.16 91 1013.2
20260904133515 48 150 0.0 1.0 0.00 0.16 0.16 91 1013.3
20260904133017 48 150 0.0 1.0 0.00 0.16 0.16 91 1013.2
20260904132518 48 150 0.0 1.0 0.00 0.16 0.16 91 1013.3
20260904132014 48 156 0.0 0.0 0.00 0.16 0.16 92 1012.9
20260904131513 48 156 0.0 1.0 0.00 0.16 0.16 91 1013.0
20260904131013 48 156 0.0 1.0 0.00 0.16 0.16 92 1013.0
20260904130513 48 142 0.0 1.0 0.00 0.16 0.16 92 1012.8
20260904130013 48 146 0.0 2.0 0.00 0.16 0.16 92 1012.9
20260904125512 48 146 0.0 2.0 0.00 0.16 0.16 91 1012.7
20260904125012 48 150 0.0 1.0 0.00 0.16 0.16 91 1012.6
20260904124512 48 150 0.0 2.0 0.00 0.16 0.16 91 1012.7
20260904124012 48 150 0.0 2.0 0.00 0.16 0.16 91 1012.7
20260904123514 48 146 0.0 0.0 0.00 0.16 0.16 91 1012.6
20260904123010 48 145 0.0 0.0 0.00 0.16 0.16 92 1012.6
20260904122510 48 145 0.0 1.0 0.00 0.16 0.16 92 1012.7
20260904122007 48 148 0.0 1.0 0.00 0.16 0.16 92 1012.9
20260904121507 48 136 0.0 2.0 0.00 0.16 0.16 92 1013.0
20260904121007 48 150 0.0 4.0 0.00 0.16 0.16 92 1012.9
20260904120506 48 304 0.0 4.0 0.00 0.16 0.16 92 1012.7
20260904120008 48 313 0.0 2.0 0.00 0.16 0.16 93 1012.5
20260904115505 48 320 0.0 3.0 0.00 0.18 0.16 93 1012.4
20260904115005 47 320 0.0 7.0 0.00 0.18 0.16 93 1012.4
20260904114505 47 318 1.0 7.0 0.00 0.18 0.16 93 1012.5
20260904114004 47 306 1.0 5.0 0.00 0.18 0.16 93 1012.6
20260904113503 47 339 1.0 7.0 0.00 0.18 0.16 93 1012.4
20260904113002 47 310 2.0 7.0 0.00 0.18 0.16 93 1012.4
20260904112501 47 330 1.0 6.0 0.00 0.18 0.16 93 1012.4
20260904112001 47 322 1.0 6.0 0.00 0.18 0.16 93 1012.4
20260904111501 47 323 1.0 5.0 0.00 0.18 0.16 93 1012.4
20260904111001 47 319 0.0 5.0 0.00 0.18 0.16 93 1012.3
20260904110501 47 320 1.0 5.0 0.00 0.18 0.16 93 1012.3
20260904110001 47 320 1.0 7.0 0.00 0.18 0.16 93 1012.5
20260904105501 47 314 2.0 7.0 0.00 0.19 0.16 93 1012.5
20260904105001 48 316 1.0 7.0 0.01 0.19 0.16 93 1012.5
20260904104611 48 311 2.0 7.0 0.01 0.19 0.16 93 1012.4
20260904104058 48 327 2.0 6.0 0.01 0.19 0.16 93 1012.2
20260904103559 48 330 2.0 6.0 0.01 0.19 0.16 93 1012.3
20260904103106 48 309 1.0 6.0 0.01 0.19 0.16 93 1012.2
20260904102557 48 323 1.0 7.0 0.01 0.19 0.16 93 1012.1
20260904102057 48 319 3.0 7.0 0.01 0.19 0.16 93 1012.1
20260904101602 48 320 1.0 4.0 0.01 0.19 0.16 93 1011.8
20260904101055 48 326 1.0 3.0 0.01 0.19 0.16 93 1011.8
20260904100555 48 321 1.0 4.0 0.01 0.19 0.16 93 1011.8
20260904100054 48 325 0.0 4.0 0.01 0.19 0.16 93 1011.8
20260904095554 48 311 0.0 2.0 0.01 0.22 0.16 93 1011.8
20260904095053 48 135 0.0 1.0 0.00 0.21 0.15 93 1011.5
20260904094554 48 334 0.0 2.0 0.01 0.21 0.15 93 1011.3
20260904094052 48 336 0.0 2.0 0.01 0.21 0.15 93 1011.3
20260904093552 48 325 0.0 2.0 0.01 0.21 0.15 94 1011.5
20260904093052 48 325 0.0 1.0 0.01 0.21 0.15 94 1011.5
20260904092550 48 325 0.0 1.0 0.01 0.21 0.15 93 1011.2
20260904092052 48 325 0.0 1.0 0.01 0.21 0.15 93 1011.1
20260904091551 48 325 0.0 0.0 0.02 0.21 0.15 93 1011.0
20260904091050 48 325 0.0 1.0 0.02 0.21 0.15 93 1011.3
20260904090549 48 324 0.0 1.0 0.02 0.21 0.15 93 1011.3
20260904090050 48 325 0.0 0.0 0.02 0.21 0.15 93 1011.3
20260904085549 48 325 0.0 1.0 0.02 0.22 0.15 93 1011.4
20260904085049 48 325 0.0 2.0 0.02 0.22 0.15 93 1011.4
20260904084550 48 325 0.0 2.0 0.02 0.21 0.14 93 1011.3
20260904084048 48 330 0.0 2.0 0.02 0.21 0.14 93 1011.4
20260904083549 48 63 0.0 3.0 0.02 0.21 0.14 93 1011.2
20260904083055 48 318 1.0 3.0 0.03 0.21 0.14 93 1011.1
20260904082547 48 323 1.0 3.0 0.05 0.21 0.14 93 1011.1
20260904082048 48 193 0.0 3.0 0.06 0.21 0.14 93 1011.1
20260904081550 48 330 1.0 5.0 0.06 0.20 0.13 92 1011.0
20260904081047 48 323 1.0 5.0 0.07 0.20 0.13 92 1011.0
20260904080547 47 333 2.0 4.0 0.08 0.20 0.13 92 1011.0
20260904080046 47 236 1.0 3.0 0.10 0.20 0.13 92 1011.2
20260904075545 47 325 1.0 2.0 0.10 0.20 0.13 92 1011.1
20260904075045 47 335 0.0 3.0 0.10 0.20 0.13 92 1011.2
20260904074557 47 323 0.0 4.0 0.10 0.19 0.12 91 1011.0
20260904074045 47 336 2.0 5.0 0.10 0.19 0.12 91 1011.1
20260904073545 47 322 2.0 6.0 0.10 0.19 0.12 91 1011.3
20260904073047 47 313 3.0 6.0 0.09 0.18 0.11 91 1011.3
20260904072543 47 322 2.0 4.0 0.08 0.16 0.09 91 1011.3
20260904072044 47 321 1.0 4.0 0.07 0.15 0.08 91 1011.5